SCP
0 0 0 0 0 0 0 0 0 0 0 0 0 0 0 0 0 0 0 0 0 0 0 0 0 0 0 0 0 0 0 0 0 0 0 0 0 0 0 0 0 0 0
0 0 0 0 0 0 0 0 0 0 0 0 0 0 0 0 0 0 0 0 0 0 0 0 0 0 0 0 0 0 0 0 0 0 0 0 0 0 0 0 0 0 0
0 0 0 0 0 0 0 0 0 0 0 0 0 0 0 0 0 0 0 0 0 0 -0 0 0 0 0 -0 0 0 0 0 0 0 0 0 0 0 0 0 0 0 0
0 0 0 0 0 0 0 0 0 0 0 0 0 0 0 0 0 0 0 0 0 0 0 0 0 0 0 0 0 0 0 0 0 0 0 0 0 0 0 0 0 0 0
0 0 0 0 0 0 0 0 0 0 0 0 0 0 0 0 0 0 0 0 0 0 0 0 0 0 0 0 0 0 0 0 0 0 0 0 0 0 0 -0 0 0 0
0 1 1 0 0 0 0 0 0 0 0 0 0 0 0 0 0 0 0 0 0 0 0 0 0 0 0 0 0 0 0 0 0 0 0 0 0 0 0 0 0 0 0
1 1 0 0 0 0 0 0 0 0 0 0 0 0 0 0 0 0 0 0 0 0 0 0 0 0 0 0 0 0 0 0 0 0 0 0 0 0 0 0 0 0 0
0 0 0 0 0 0 0 0 0 0 0 0 0 0 0 0 0 0 0 0 0 0 0 0 0 0 0 0 0 0 0 0 0 0 0 0 0 0 0 0 0 0 0
0 0 0 0 0 0 0 0 0 0 0 0 0 0 0 0 0 0 0 0 0 0 0 0 0 0 0 0 0 0 0 0 0 -0 0 0 0 0 0 0 0 0 0
0 0 0 0 0 0 0 0 0 0 0 0 0 0 0 0 0 0 0 0 0 0 0 0 0 0 0 0 0 0 0 0 0 0 0 0 0 0 0 0 0 0 0
0 0 0 0 0 0 0 0 0 0 0 0 0 0 0 0 0 0 0 0 0 0 0 0 0 0 0 0 0 0 0 0 0 -0 0 0 0 0 0 0 0 0 0
0 0 0 0 0 0 0 0 0 0 0 0 0 0 0 0 0 0 0 0 0 0 0 0 0 0 0 0 0 0 0 0 0 0 0 0 0 0 0 0 0 0 0
0 0 0 0 0 0 0 0 0 0 0 0 0 0 0 0 0 0 0 0 0 0 0 0 0 0 0 0 0 0 0 0 0 0 0 0 0 0 0 0 0 0 0
0 0 0 0 0 0 0 0 0 0 0 0 0 0 -0 0 0 0 0 0 0 0 0 0 0 0 0 0 0 0 0 0 0 0 0 0 0 0 0 0 0 0 0
0 0 0 0 0 0 0 0 0 0 0 0 0 0 0 0 0 0 0 0 0 0 0 0 0 0 0 0 0 0 0 0 0 0 0 0 0 0 0 0 0 0 0
0 0 0 0 0 0 0 0 0 0 0 0 0 0 0 0 0 0 0 0 0 0 0 0 0 0 0 0 0 0 0 0 0 0 0 0 0 0 0 0 0 0 0
0 0 0 0 0 0 0 0 0 0 0 0 0 0 0 0 0 0 0 0 0 0 0 0 0 0 0 0 0 0 0 0 0 0 0 0 0 0 0 0 0 0 0
0 0 0 0 0 0 0 0 0 0 0 0 0 0 0 0 0 0 0 0 0 0 0 0 0 0 0 0 0 -0 -0 0 0 0 0 0 0 0 0 0 0 0 0
0 0 0 0 0 0 0 0 0 0 0 0 0 0 0 0 0 0 0 0 0 0 0 0 0 0 0 0 0 0 0 0 0 0 0 0 0 0 0 0 0 0 0
0 0 0 0 0 0 0 0 0 0 0 0 0 0 0 0 0 0 0 0 0 0 0 0 0 0 0 0 0 0 0 0 0 0 0 0 0 0 0 0 0 0 0
0 0 0 0 0 0 0 0 0 0 0 0 0 0 0 0 0 0 0 0 0 0 0 0 0 0 0 0 0 0 0 0 0 0 0 0 0 0 0 0 0 0 0
0 0 0 0 0 0 0 0 0 0 0 0 0 0 0 0 0 0 0 0 0 0 0 0 0 0 0 0 0 0 0 0 0 0 0 0 0 0 0 0 0 0 0
0 0 0 0 0 0 0 0 0 0 0 0 0 0 0 0 0 0 0 0 0 0 0 0 0 0 0 0 0 0 0 0 0 0 0 0 0 0 0 0 0 0 0
0 0 0 0 0 0 0 0 0 0 0 0 0 0 -0 -0 0 0 0 0 0 0 0 0 0 0 0 0 0 0 0 0 0 0 0 0 0 0 0 0 0 0 0
0 0 0 0 0 0 0 0 0 0 0 0 0 -0 -0 0 0 0 0 0 0 0 0 0 0 0 0 0 0 0 0 0 0 0 0 0 0 0 0 0 0 0 0
0 0 0 0 0 0 0 0 0 0 0 0 0 0 0 0 0 0 0 0 0 0 0 0 0 0 0 0 0 0 0 0 0 0 0 0 0 0 0 0 0 0 0
Wind_Speed_500mb
24 20 15 11 6 13 9 10 16 15 19 21 24 27 17 17 18 22 27 23 33 44 49 55 58 68 64 56 59 45 36 30 34 32 29 30 30 28 27 30 27 30 34
29 20 24 21 16 17 15 12 19 18 27 26 20 16 12 19 24 27 24 23 35 41 45 54 62 62 56 53 47 41 50 35 41 36 33 34 35 26 26 26 29 28 31
30 19 19 9 14 22 25 33 29 30 37 28 16 8 8 21 23 28 26 24 41 36 44 47 56 56 51 51 34 57 44 37 60 42 37 37 35 33 25 23 26 28 32
30 22 19 16 15 18 23 33 36 35 28 20 12 12 11 23 17 20 19 30 37 31 42 50 53 59 54 58 51 49 34 61 55 53 47 42 35 33 29 26 27 28 31
28 32 23 23 17 27 30 36 37 28 20 17 16 19 13 20 15 19 24 32 30 29 44 47 58 53 57 59 51 40 59 61 56 55 57 50 44 38 35 31 30 30 31
25 29 19 29 22 24 30 35 32 24 22 23 23 24 28 25 22 20 23 19 20 39 42 48 42 46 59 50 49 51 56 63 57 56 62 55 49 46 41 35 35 29 34
18 22 21 26 28 24 29 32 25 20 20 25 33 27 23 11 23 27 19 8 29 42 41 37 37 52 51 44 42 50 58 56 53 56 63 53 50 50 46 43 38 37 34
19 26 20 24 21 25 30 27 23 22 24 19 17 18 10 14 12 29 23 18 30 35 38 33 49 46 39 39 40 46 56 50 49 53 58 56 54 54 47 46 43 40 34
18 24 23 19 21 28 29 22 20 18 12 11 16 17 10 9 42 17 28 44 42 33 38 44 38 34 34 33 38 43 50 49 53 64 69 63 54 53 48 45 43 43 38
24 21 18 17 22 27 26 19 13 4 2 8 8 16 16 19 16 28 45 46 45 35 38 38 35 31 30 33 39 42 45 58 68 64 66 65 53 47 46 46 46 43 44
29 25 18 24 23 18 18 18 8 9 11 11 19 25 24 20 10 22 42 56 48 40 34 36 28 37 40 38 39 45 55 64 56 70 68 61 47 44 45 45 45 44 42
32 28 22 19 14 16 15 10 11 9 5 13 17 18 24 25 31 26 43 45 46 48 41 30 39 41 35 42 48 57 60 55 58 66 60 54 54 49 53 48 49 44 41
25 23 17 13 12 14 11 11 7 4 7 13 22 27 27 25 24 27 35 45 46 45 41 43 32 39 48 58 61 59 51 53 60 62 64 61 63 64 60 57 55 50 42
24 20 14 11 14 14 16 16 11 1 14 23 31 33 34 25 25 29 30 40 49 42 48 42 34 47 56 48 51 57 47 49 54 58 64 67 65 59 62 62 58 51 41
15 13 13 15 19 20 16 7 3 11 17 30 33 32 31 26 26 28 33 32 36 35 54 41 66 58 46 48 50 45 45 47 48 62 71 72 58 59 59 53 47 40 38
6 9 12 20 26 22 10 4 4 13 21 26 32 29 28 24 29 32 28 33 38 42 35 56 58 59 51 35 41 43 40 47 58 70 72 60 46 49 52 48 45 41 32
4 11 22 27 20 19 13 11 9 12 21 28 30 30 30 28 30 35 37 43 41 36 42 54 56 59 46 41 45 46 54 64 69 65 59 48 41 48 54 53 48 26 32
19 23 28 24 20 18 12 5 11 19 24 24 25 26 27 30 33 40 48 41 38 43 51 54 50 54 47 45 53 56 60 65 68 68 46 35 43 51 35 26 25 24 23
33 31 23 19 16 12 5 9 17 20 19 20 18 21 24 31 39 46 48 52 48 45 42 43 52 49 47 49 63 62 67 71 67 64 48 41 48 47 24 23 22 23 29
34 28 23 19 11 5 7 13 12 10 12 15 17 23 28 34 38 50 47 43 39 41 42 44 50 55 57 60 64 67 74 73 71 65 52 55 58 41 21 17 25 28 36
30 25 18 11 7 5 11 11 8 9 13 21 22 23 22 31 39 44 43 39 40 41 42 46 44 54 62 70 66 70 76 79 72 64 66 67 50 38 17 15 27 32 37
28 21 15 5 1 5 9 9 7 11 19 30 33 36 36 36 45 42 37 36 29 29 34 41 52 57 62 61 63 67 72 77 73 62 65 57 38 32 24 31 23 29 34
25 18 12 10 12 14 15 12 13 17 26 30 32 35 41 49 43 44 41 39 37 32 31 37 42 48 56 61 63 64 58 58 62 61 46 53 49 41 36 28 19 17 28
19 18 16 19 19 20 15 13 15 17 16 16 22 28 43 47 46 49 46 46 48 48 41 39 40 44 48 48 47 48 50 52 57 48 31 53 51 50 32 10 20 26 29
18 19 21 20 20 20 16 15 15 12 11 25 16 36 41 42 49 52 51 53 52 54 42 39 35 34 34 35 37 39 41 50 59 46 34 45 53 52 25 32 30 26 30
26 27 28 25 26 25 22 22 21 20 15 23 27 37 32 42 48 48 53 63 60 60 52 43 36 32 32 32 30 33 39 45 42 35 35 47 50 54 32 48 28 36 30
Wind_Direction_500mb
193 216 217 246 236 333 279 241 223 233 270 295 295 294 310 304 312 326 322 327 338 335 346 346 354 351 350 349 348 358 353 341 337 334 346 325 306 301 290 287 283 290 283
210 201 219 219 227 292 264 251 265 276 293 301 297 320 331 326 323 333 329 335 339 329 352 348 352 345 346 351 355 351 351 347 345 344 344 329 332 320 309 306 297 284 283
203 220 238 238 202 275 268 267 276 288 293 294 299 289 323 310 327 328 339 330 332 341 347 341 343 341 349 355 347 340 349 348 348 354 344 335 347 343 327 315 303 287 274
213 208 229 228 279 264 265 263 276 289 288 299 288 274 300 306 340 321 316 319 332 337 340 337 338 349 348 350 335 346 340 341 345 353 352 350 357 350 342 330 312 300 291
233 228 217 225 240 260 261 275 298 302 298 292 260 297 303 329 296 301 307 328 326 339 345 342 344 346 342 340 336 346 341 342 347 352 350 349 349 348 345 339 327 309 299
217 220 225 227 241 256 272 287 303 296 291 291 294 303 306 296 279 297 334 345 336 347 351 344 341 339 339 339 343 337 343 344 345 348 345 343 349 350 345 340 332 307 302
224 221 222 242 256 273 286 295 292 289 294 303 311 317 326 317 279 336 340 10 348 349 348 341 335 338 346 344 338 335 341 343 341 340 340 341 347 346 343 336 333 330 312
229 221 231 241 263 282 286 283 286 291 304 313 339 337 316 308 248 322 354 339 317 351 345 343 340 341 349 337 334 332 340 333 338 338 340 340 341 341 340 338 336 328 323
236 228 230 245 267 277 275 281 294 300 300 333 348 359 336 317 334 316 321 337 342 354 341 339 349 345 340 332 332 335 329 329 334 335 332 335 338 334 336 337 335 333 324
218 228 248 274 275 276 286 297 287 278 16 327 318 347 353 345 343 318 326 332 341 351 342 349 349 341 335 336 334 329 326 324 328 333 329 331 331 333 333 336 333 330 330
214 228 246 257 265 273 260 268 249 264 300 320 341 350 346 348 309 306 309 324 333 343 353 357 0 352 335 332 333 327 324 327 334 337 334 331 331 328 329 332 330 330 327
215 225 240 245 252 245 239 234 247 262 309 350 0 358 357 353 337 341 319 323 324 334 343 332 333 344 341 332 329 327 324 328 333 337 337 329 328 329 332 331 331 328 325
211 229 232 261 246 213 207 225 236 283 322 341 346 354 353 342 326 318 319 323 325 333 333 331 330 318 316 321 325 330 331 327 330 337 342 336 326 325 328 327 327 328 324
207 201 216 231 207 205 211 202 196 316 9 3 349 349 348 340 327 318 323 332 332 332 328 332 316 318 321 316 325 327 327 329 331 330 333 331 325 324 326 324 323 325 324
188 201 232 219 212 203 187 183 194 353 349 351 343 344 338 337 333 332 327 327 339 340 330 322 328 330 334 332 334 333 333 335 323 324 325 323 315 316 319 321 321 320 321
235 270 216 203 184 168 167 225 316 328 338 328 334 338 337 332 327 325 330 332 328 332 324 321 325 328 333 342 342 336 335 321 318 322 325 322 322 325 321 320 316 319 316
253 183 178 162 171 172 171 217 263 316 322 330 332 338 344 337 332 335 333 327 325 324 319 311 318 323 338 343 340 327 319 320 323 331 331 325 333 329 319 311 306 317 321
175 169 158 170 169 179 198 278 323 321 322 328 336 338 340 334 335 333 333 334 331 323 318 319 329 341 343 344 327 318 322 327 342 346 339 333 342 342 345 351 333 330 331
148 152 163 167 166 189 240 308 312 320 327 328 329 329 335 331 330 332 335 338 340 340 346 345 336 340 345 349 336 336 336 345 352 348 344 333 340 340 338 328 336 333 336
152 165 158 162 167 198 283 300 321 330 322 329 346 338 330 331 336 340 345 347 353 354 355 348 344 348 345 337 335 340 342 344 344 342 338 334 327 324 330 315 338 336 336
157 159 150 162 188 309 334 333 344 347 347 359 355 349 330 347 350 355 357 360 1 355 352 348 342 332 335 337 342 334 332 334 340 346 335 336 331 326 328 330 339 340 328
154 154 145 144 38 28 30 36 40 41 38 45 28 26 19 5 0 3 4 6 3 350 344 331 328 327 329 328 329 330 328 332 335 345 340 353 357 351 336 333 321 324 332
150 142 120 81 63 66 73 69 64 52 37 37 18 14 7 360 2 7 7 7 3 357 331 321 322 327 323 324 322 328 334 333 334 344 340 348 354 345 337 330 331 338 350
145 118 106 85 65 65 82 69 34 50 37 35 5 3 358 0 6 8 11 9 9 5 0 350 336 330 325 325 325 326 330 334 339 355 351 342 356 348 338 352 7 352 349
120 97 96 86 69 53 54 43 42 88 59 57 29 11 7 5 11 10 7 6 7 7 6 356 348 341 338 336 333 332 340 343 344 0 1 344 353 358 43 14 354 352 359
109 103 91 71 61 53 46 48 59 111 88 63 31 19 11 7 11 9 4 6 3 1 3 5 0 358 352 353 352 352 349 347 346 351 359 343 355 354 341 6 26 14 5
Wind_Speed_850mb
24 20 15 11 6 13 9 10 16 15 19 21 24 27 17 17 18 22 27 23 33 44 49 55 58 68 64 56 59 45 36 30 34 32 29 30 30 28 27 30 27 30 34
29 20 24 21 16 17 15 12 19 18 27 26 20 16 12 19 24 27 24 23 35 41 45 54 62 62 56 53 47 41 50 35 41 36 33 34 35 26 26 26 29 28 31
30 19 19 9 14 22 25 33 29 30 37 28 16 8 8 21 23 28 26 24 41 36 44 47 56 56 51 51 34 57 44 37 60 42 37 37 35 33 25 23 26 28 32
30 22 19 16 15 18 23 33 36 35 28 20 12 12 11 23 17 20 19 30 37 31 42 50 53 59 54 58 51 49 34 61 55 53 47 42 35 33 29 26 27 28 31
28 32 23 23 17 27 30 36 37 28 20 17 16 19 13 20 15 19 24 32 30 29 44 47 58 53 57 59 51 40 59 61 56 55 57 50 44 38 35 31 30 30 31
25 29 19 29 22 24 30 35 32 24 22 23 23 24 28 25 22 20 23 19 20 39 42 48 42 46 59 50 49 51 56 63 57 56 62 55 49 46 41 35 35 29 34
18 22 21 26 28 24 29 32 25 20 20 25 33 27 23 11 23 27 19 8 29 42 41 37 37 52 51 44 42 50 58 56 53 56 63 53 50 50 46 43 38 37 34
19 26 20 24 21 25 30 27 23 22 24 19 17 18 10 14 12 29 23 18 30 35 38 33 49 46 39 39 40 46 56 50 49 53 58 56 54 54 47 46 43 40 34
18 24 23 19 21 28 29 22 20 18 12 11 16 17 10 9 42 17 28 44 42 33 38 44 38 34 34 33 38 43 50 49 53 64 69 63 54 53 48 45 43 43 38
24 21 18 17 22 27 26 19 13 4 2 8 8 16 16 19 16 28 45 46 45 35 38 38 35 31 30 33 39 42 45 58 68 64 66 65 53 47 46 46 46 43 44
29 25 18 24 23 18 18 18 8 9 11 11 19 25 24 20 10 22 42 56 48 40 34 36 28 37 40 38 39 45 55 64 56 70 68 61 47 44 45 45 45 44 42
32 28 22 19 14 16 15 10 11 9 5 13 17 18 24 25 31 26 43 45 46 48 41 30 39 41 35 42 48 57 60 55 58 66 60 54 54 49 53 48 49 44 41
25 23 17 13 12 14 11 11 7 4 7 13 22 27 27 25 24 27 35 45 46 45 41 43 32 39 48 58 61 59 51 53 60 62 64 61 63 64 60 57 55 50 42
24 20 14 11 14 14 16 16 11 1 14 23 31 33 34 25 25 29 30 40 49 42 48 42 34 47 56 48 51 57 47 49 54 58 64 67 65 59 62 62 58 51 41
15 13 13 15 19 20 16 7 3 11 17 30 33 32 31 26 26 28 33 32 36 35 54 41 66 58 46 48 50 45 45 47 48 62 71 72 58 59 59 53 47 40 38
6 9 12 20 26 22 10 4 4 13 21 26 32 29 28 24 29 32 28 33 38 42 35 56 58 59 51 35 41 43 40 47 58 70 72 60 46 49 52 48 45 41 32
4 11 22 27 20 19 13 11 9 12 21 28 30 30 30 28 30 35 37 43 41 36 42 54 56 59 46 41 45 46 54 64 69 65 59 48 41 48 54 53 48 26 32
19 23 28 24 20 18 12 5 11 19 24 24 25 26 27 30 33 40 48 41 38 43 51 54 50 54 47 45 53 56 60 65 68 68 46 35 43 51 35 26 25 24 23
33 31 23 19 16 12 5 9 17 20 19 20 18 21 24 31 39 46 48 52 48 45 42 43 52 49 47 49 63 62 67 71 67 64 48 41 48 47 24 23 22 23 29
34 28 23 19 11 5 7 13 12 10 12 15 17 23 28 34 38 50 47 43 39 41 42 44 50 55 57 60 64 67 74 73 71 65 52 55 58 41 21 17 25 28 36
30 25 18 11 7 5 11 11 8 9 13 21 22 23 22 31 39 44 43 39 40 41 42 46 44 54 62 70 66 70 76 79 72 64 66 67 50 38 17 15 27 32 37
28 21 15 5 1 5 9 9 7 11 19 30 33 36 36 36 45 42 37 36 29 29 34 41 52 57 62 61 63 67 72 77 73 62 65 57 38 32 24 31 23 29 34
25 18 12 10 12 14 15 12 13 17 26 30 32 35 41 49 43 44 41 39 37 32 31 37 42 48 56 61 63 64 58 58 62 61 46 53 49 41 36 28 19 17 28
19 18 16 19 19 20 15 13 15 17 16 16 22 28 43 47 46 49 46 46 48 48 41 39 40 44 48 48 47 48 50 52 57 48 31 53 51 50 32 10 20 26 29
18 19 21 20 20 20 16 15 15 12 11 25 16 36 41 42 49 52 51 53 52 54 42 39 35 34 34 35 37 39 41 50 59 46 34 45 53 52 25 32 30 26 30
26 27 28 25 26 25 22 22 21 20 15 23 27 37 32 42 48 48 53 63 60 60 52 43 36 32 32 32 30 33 39 45 42 35 35 47 50 54 32 48 28 36 30
Wind_Direction_850mb
193 216 217 246 236 333 279 241 223 233 270 295 295 294 310 304 312 326 322 327 338 335 346 346 354 351 350 349 348 358 353 341 337 334 346 325 306 301 290 287 283 290 283
210 201 219 219 227 292 264 251 265 276 293 301 297 320 331 326 323 333 329 335 339 329 352 348 352 345 346 351 355 351 351 347 345 344 344 329 332 320 309 306 297 284 283
203 220 238 238 202 275 268 267 276 288 293 294 299 289 323 310 327 328 339 330 332 341 347 341 343 341 349 355 347 340 349 348 348 354 344 335 347 343 327 315 303 287 274
213 208 229 228 279 264 265 263 276 289 288 299 288 274 300 306 340 321 316 319 332 337 340 337 338 349 348 350 335 346 340 341 345 353 352 350 357 350 342 330 312 300 291
233 228 217 225 240 260 261 275 298 302 298 292 260 297 303 329 296 301 307 328 326 339 345 342 344 346 342 340 336 346 341 342 347 352 350 349 349 348 345 339 327 309 299
217 220 225 227 241 256 272 287 303 296 291 291 294 303 306 296 279 297 334 345 336 347 351 344 341 339 339 339 343 337 343 344 345 348 345 343 349 350 345 340 332 307 302
224 221 222 242 256 273 286 295 292 289 294 303 311 317 326 317 279 336 340 10 348 349 348 341 335 338 346 344 338 335 341 343 341 340 340 341 347 346 343 336 333 330 312
229 221 231 241 263 282 286 283 286 291 304 313 339 337 316 308 248 322 354 339 317 351 345 343 340 341 349 337 334 332 340 333 338 338 340 340 341 341 340 338 336 328 323
236 228 230 245 267 277 275 281 294 300 300 333 348 359 336 317 334 316 321 337 342 354 341 339 349 345 340 332 332 335 329 329 334 335 332 335 338 334 336 337 335 333 324
218 228 248 274 275 276 286 297 287 278 16 327 318 347 353 345 343 318 326 332 341 351 342 349 349 341 335 336 334 329 326 324 328 333 329 331 331 333 333 336 333 330 330
214 228 246 257 265 273 260 268 249 264 300 320 341 350 346 348 309 306 309 324 333 343 353 357 0 352 335 332 333 327 324 327 334 337 334 331 331 328 329 332 330 330 327
215 225 240 245 252 245 239 234 247 262 309 350 0 358 357 353 337 341 319 323 324 334 343 332 333 344 341 332 329 327 324 328 333 337 337 329 328 329 332 331 331 328 325
211 229 232 261 246 213 207 225 236 283 322 341 346 354 353 342 326 318 319 323 325 333 333 331 330 318 316 321 325 330 331 327 330 337 342 336 326 325 328 327 327 328 324
207 201 216 231 207 205 211 202 196 316 9 3 349 349 348 340 327 318 323 332 332 332 328 332 316 318 321 316 325 327 327 329 331 330 333 331 325 324 326 324 323 325 324
188 201 232 219 212 203 187 183 194 353 349 351 343 344 338 337 333 332 327 327 339 340 330 322 328 330 334 332 334 333 333 335 323 324 325 323 315 316 319 321 321 320 321
235 270 216 203 184 168 167 225 316 328 338 328 334 338 337 332 327 325 330 332 328 332 324 321 325 328 333 342 342 336 335 321 318 322 325 322 322 325 321 320 316 319 316
253 183 178 162 171 172 171 217 263 316 322 330 332 338 344 337 332 335 333 327 325 324 319 311 318 323 338 343 340 327 319 320 323 331 331 325 333 329 319 311 306 317 321
175 169 158 170 169 179 198 278 323 321 322 328 336 338 340 334 335 333 333 334 331 323 318 319 329 341 343 344 327 318 322 327 342 346 339 333 342 342 345 351 333 330 331
148 152 163 167 166 189 240 308 312 320 327 328 329 329 335 331 330 332 335 338 340 340 346 345 336 340 345 349 336 336 336 345 352 348 344 333 340 340 338 328 336 333 336
152 165 158 162 167 198 283 300 321 330 322 329 346 338 330 331 336 340 345 347 353 354 355 348 344 348 345 337 335 340 342 344 344 342 338 334 327 324 330 315 338 336 336
157 159 150 162 188 309 334 333 344 347 347 359 355 349 330 347 350 355 357 360 1 355 352 348 342 332 335 337 342 334 332 334 340 346 335 336 331 326 328 330 339 340 328
154 154 145 144 38 28 30 36 40 41 38 45 28 26 19 5 0 3 4 6 3 350 344 331 328 327 329 328 329 330 328 332 335 345 340 353 357 351 336 333 321 324 332
150 142 120 81 63 66 73 69 64 52 37 37 18 14 7 360 2 7 7 7 3 357 331 321 322 327 323 324 322 328 334 333 334 344 340 348 354 345 337 330 331 338 350
145 118 106 85 65 65 82 69 34 50 37 35 5 3 358 0 6 8 11 9 9 5 0 350 336 330 325 325 325 326 330 334 339 355 351 342 356 348 338 352 7 352 349
120 97 96 86 69 53 54 43 42 88 59 57 29 11 7 5 11 10 7 6 7 7 6 356 348 341 338 336 333 332 340 343 344 0 1 344 353 358 43 14 354 352 359
109 103 91 71 61 53 46 48 59 111 88 63 31 19 11 7 11 9 4 6 3 1 3 5 0 358 352 353 352 352 349 347 346 351 359 343 355 354 341 6 26 14 5